Location: Tucson
(32.2217°N, 110.9265°W)
Time: 07:55:26
(UTC-07:00)

Tiros 1 - Pass Details

Date: 31 October 2021
Orbit: 629 x 664 km, 48.4° (Epoch: 27 November)

Event Time Altitude Azimuth Distance (km) Brightness Sun altitude
Rises 13:12:01 0° 316° (NW) 2,972 10.4 40.9°
Reaches altitude 10° 13:14:32 10° 325° (NW) 2,053 9.6 40.7°
Maximum altitude 13:18:54 36° 32° (NNE) 1,027 8.1 40.3°
Drops below altitude 10° 13:23:12 10° 99° (E) 2,026 9.7 40.0°
Sets 13:25:40 0° 108° (ESE) 2,927 10.5 39.8°
